EW9081 Weather Reports


time (UTC)temp
C
wind
direction
speed
KPH
gust
KPH
rain 1hr
cm
rain 24hr
cm
rain mn
cm
humidity
%
barometer
mb
20260902172851 14 157 0.0 4.8 0.05 0.10 0.10 89 1005.9
20260902172847 14 177 0.0 3.2 0.05 0.10 0.10 89 1005.9
20260902172459 14 169 0.0 4.8 0.08 0.10 0.10 89 1006.0
20260902171346 14 135 0.0 4.8 0.08 0.10 0.10 89 1006.1
20260902170846 14 185 0.0 4.8 0.08 0.10 0.10 89 1006.1
20260902170345 14 186 0.0 4.8 0.08 0.10 0.10 89 1006.2
20260902165847 14 159 0.0 4.8 0.05 0.08 0.10 89 1006.3
20260902165345 14 150 1.6 8.0 0.08 0.08 0.08 89 1006.3
20260902164844 14 184 1.6 8.0 0.08 0.08 0.08 88 1006.3
20260902164345 14 169 1.6 8.0 0.08 0.08 0.08 88 1006.3
20260902163848 14 133 0.0 6.4 0.05 0.05 0.05 88 1006.3
20260902163844 14 186 1.6 8.0 0.05 0.05 0.05 88 1006.3
20260902162843 14 175 0.0 0.0 0.05 0.05 0.05 89 1006.3
20260902162344 14 175 0.0 0.0 0.05 0.05 0.05 89 1006.3
20260902161843 14 221 0.0 0.0 0.03 0.03 0.03 89 1006.5
20260902161349 14 221 0.0 0.0 0.03 0.03 0.03 88 1006.3
20260902161345 14 221 0.0 0.0 0.03 0.03 0.03 89 1006.3
20260902160842 14 221 0.0 0.0 0.03 0.03 0.03 88 1006.3
20260902160455 14 221 0.0 0.0 0.00 0.00 0.00 87 1006.3
20260902155841 14 221 0.0 0.0 0.03 0.03 0.03 88 1006.3
20260902155340 14 221 0.0 0.0 0.00 0.00 0.00 87 1006.3
20260902154344 14 221 0.0 3.2 0.00 0.00 0.00 87 1006.5
20260902154340 14 221 0.0 0.0 0.00 0.00 0.00 87 1006.5
20260902153958 14 221 0.0 3.2 0.00 0.00 0.00 86 1006.5
20260902152837 14 221 0.0 0.0 0.00 0.00 0.00 85 1006.5
20260902152337 14 221 0.0 3.2 0.00 0.00 0.00 85 1006.6
20260902151838 14 221 0.0 3.2 0.00 0.00 0.00 85 1006.7
20260902151339 14 221 0.0 3.2 0.00 0.00 0.00 85 1006.6
20260902150838 14 221 0.0 3.2 0.00 0.00 0.00 84 1006.7
20260902150338 14 221 0.0 3.2 0.00 0.00 0.00 85 1006.7
20260902145837 14 221 0.0 3.2 0.00 0.00 0.00 85 1006.8
20260902145339 14 235 0.0 3.2 0.00 0.00 0.00 85 1006.8
20260902144844 14 197 0.0 0.0 0.00 0.00 0.00 85 1006.9
20260902144837 14 235 0.0 3.2 0.00 0.00 0.00 85 1006.8
20260902144338 14 235 0.0 1.6 0.00 0.00 0.00 85 1006.9
20260902143338 14 197 0.0 0.0 0.00 0.00 0.00 85 1006.9
20260902142837 14 197 0.0 0.0 0.00 0.00 0.00 85 1007.0
20260902142337 14 197 0.0 0.0 0.00 0.00 0.00 85 1007.1
20260902141838 14 196 0.0 0.0 0.00 0.00 0.00 85 1007.2
20260902141337 14 196 0.0 0.0 0.00 0.00 0.00 84 1007.3
20260902140838 14 196 0.0 0.0 0.00 0.00 0.00 83 1007.3
20260902140339 14 196 0.0 0.0 0.00 0.00 0.00 83 1007.3
20260902135838 14 196 0.0 0.0 0.00 0.00 0.00 83 1007.3
20260902135342 14 196 0.0 0.0 0.00 0.00 0.00 83 1007.5
20260902135338 14 196 0.0 0.0 0.00 0.00 0.00 83 1007.4
20260902134338 14 196 0.0 0.0 0.00 0.00 0.00 82 1007.5
20260902133842 14 196 0.0 0.0 0.00 0.00 0.00 82 1007.5
20260902133838 14 196 0.0 0.0 0.00 0.00 0.00 82 1007.5
20260902132843 14 196 0.0 3.2 0.00 0.00 0.00 82 1007.6
20260902132838 14 196 0.0 0.0 0.00 0.00 0.00 82 1007.6
20260902131837 14 196 0.0 3.2 0.00 0.00 0.00 82 1007.7
20260902131337 14 196 0.0 3.2 0.00 0.00 0.00 82 1007.7
20260902130837 14 196 0.0 3.2 0.00 0.00 0.00 82 1007.8
20260902130338 14 196 0.0 3.2 0.00 0.00 0.00 82 1007.9
20260902125836 14 196 0.0 3.2 0.00 0.00 0.00 81 1007.9
20260902125336 14 196 0.0 4.8 0.00 0.00 0.00 81 1008.0
20260902124840 14 196 0.0 3.2 0.00 0.00 0.00 81 1008.0
20260902124835 14 196 0.0 4.8 0.00 0.00 0.00 81 1008.0
20260902123836 14 148 0.0 3.2 0.00 0.00 0.00 81 1008.1
20260902123333 15 173 0.0 3.2 0.00 0.00 0.00 81 1008.1
20260902122833 15 173 0.0 3.2 0.00 0.00 0.00 80 1008.3
20260902122333 15 173 0.0 3.2 0.00 0.00 0.00 80 1008.3
20260902121839 15 157 1.6 4.8 0.00 0.00 0.00 80 1008.5
20260902121835 15 173 0.0 3.2 0.00 0.00 0.00 80 1008.4
20260902121438 15 155 0.0 4.8 0.00 0.00 0.00 80 1008.5
20260902120945 15 142 0.0 4.8 0.00 0.00 0.00 80 1008.5
20260902120333 15 180 1.6 4.8 0.00 0.00 0.00 80 1008.6
20260902115947 15 166 1.6 8.0 0.00 0.00 0.00 80 1008.6
20260902114832 15 175 1.6 8.0 0.00 0.00 0.00 80 1008.8
20260902114329 15 163 1.6 8.0 0.00 0.00 0.00 80 1008.9
20260902113829 15 169 1.6 8.0 0.00 0.00 0.00 80 1009.0
20260902113334 15 192 1.6 9.7 0.00 0.00 0.00 81 1009.0
20260902113329 15 173 1.6 4.8 0.00 0.00 0.00 81 1008.9
20260902112329 15 180 1.6 9.7 0.00 0.00 0.00 81 1009.1
20260902111829 15 189 3.2 11.3 0.00 0.00 0.00 81 1009.2
20260902111329 15 202 1.6 11.3 0.00 0.00 0.00 81 1009.2
20260902110829 15 198 1.6 11.3 0.00 0.00 0.00 80 1009.3
20260902110329 15 185 1.6 11.3 0.00 0.00 0.00 80 1009.4
20260902105828 15 186 1.6 6.4 0.00 0.00 0.00 80 1009.4
20260902105328 15 178 1.6 9.7 0.00 0.00 0.00 80 1009.4
20260902104831 15 171 1.6 8.0 0.00 0.00 0.00 80 1009.5
20260902104827 15 132 1.6 9.7 0.00 0.00 0.00 80 1009.4
20260902104440 15 173 1.6 9.7 0.00 0.00 0.00 80 1009.6
20260902103327 15 166 1.6 9.7 0.00 0.00 0.00 80 1009.6
20260902102827 15 175 1.6 6.4 0.00 0.00 0.00 80 1009.6
20260902102333 15 179 3.2 8.0 0.00 0.00 0.00 80 1009.7
20260902102327 15 166 3.2 6.4 0.00 0.00 0.00 80 1009.7
20260902101326 15 182 3.2 8.0 0.00 0.00 0.00 80 1009.7
20260902100827 15 176 3.2 8.0 0.00 0.00 0.00 81 1009.7
20260902100325 14 168 3.2 8.0 0.00 0.00 0.00 81 1009.8
20260902095826 14 184 1.6 4.8 0.00 0.00 0.00 81 1009.8
20260902095326 14 174 1.6 9.7 0.00 0.00 0.00 82 1009.8
20260902094826 14 185 3.2 9.7 0.00 0.00 0.00 82 1009.9
20260902094327 14 176 3.2 8.0 0.00 0.00 0.00 82 1009.9
20260902093830 14 190 1.6 4.8 0.00 0.00 0.00 82 1009.9
20260902093825 14 173 1.6 8.0 0.00 0.00 0.00 82 1009.8
20260902092826 14 190 1.6 4.8 0.00 0.00 0.00 81 1009.9
20260902092326 14 190 3.2 6.4 0.00 0.00 0.00 81 1010.0
20260902091826 14 190 3.2 6.4 0.00 0.00 0.00 81 1010.1
20260902091323 14 190 3.2 8.0 0.00 0.00 0.00 81 1010.2
20260902090824 14 190 3.2 8.0 0.00 0.00 0.00 81 1010.1
20260902090324 14 178 1.6 4.8 0.00 0.00 0.00 81 1010.1
20260902085824 14 179 1.6 6.4 0.00 0.00 0.00 82 1010.2
20260902085323 14 170 1.6 8.0 0.00 0.00 0.00 83 1010.3
20260902084823 14 161 1.6 8.0 0.00 0.00 0.00 84 1010.3
20260902084324 13 192 0.0 4.8 0.00 0.00 0.00 85 1010.4
20260902083824 13 200 0.0 3.2 0.00 0.00 0.00 86 1010.4
20260902083322 13 254 0.0 3.2 0.00 0.00 0.00 87 1010.4
20260902082826 13 254 0.0 0.0 0.00 0.00 0.00 87 1010.5
20260902082821 13 254 0.0 0.0 0.00 0.00 0.00 87 1010.4
20260902081825 12 254 0.0 0.0 0.00 0.00 0.00 85 1010.6
20260902081820 12 254 0.0 0.0 0.00 0.00 0.00 86 1010.4
20260902081319 12 254 0.0 0.0 0.00 0.00 0.00 85 1010.6
20260902080319 12 254 0.0 0.0 0.00 0.00 0.00 85 1010.6
20260902075824 12 254 0.0 0.0 0.00 0.00 0.00 85 1010.7
20260902075820 12 254 0.0 0.0 0.00 0.00 0.00 87 1010.7
20260902074819 12 254 0.0 0.0 0.00 0.00 0.00 85 1010.8
20260902074318 12 254 0.0 0.0 0.00 0.00 0.00 85 1010.8
20260902073817 12 254 0.0 0.0 0.00 0.00 0.00 82 1010.9
20260902073316 12 254 0.0 1.6 0.00 0.00 0.00 81 1010.9
20260902072816 13 254 0.0 1.6 0.00 0.00 0.00 80 1010.9
20260902072317 13 254 0.0 3.2 0.00 0.00 0.00 81 1010.9
20260902071822 13 254 0.0 3.2 0.00 0.00 0.00 80 1011.0
20260902071818 13 254 0.0 3.2 0.00 0.00 0.00 80 1011.0
20260902070817 14 297 0.0 3.2 0.00 0.00 0.00 79 1011.1
20260902070320 15 297 0.0 3.2 0.00 0.00 0.00 78 1011.0
20260902070316 14 297 0.0 3.2 0.00 0.00 0.00 79 1011.1
20260902065928 15 297 0.0 1.6 0.00 0.00 0.00 77 1011.1
20260902065315 15 297 0.0 3.2 0.00 0.00 0.00 77 1011.1
20260902064315 15 297 0.0 4.8 0.00 0.00 0.00 77 1011.0
20260902063816 15 297 0.0 4.8 0.00 0.00 0.00 77 1011.0
20260902063315 16 211 0.0 3.2 0.00 0.00 0.00 77 1011.2
20260902062815 16 211 0.0 3.2 0.00 0.00 0.00 77 1011.3
20260902062319 16 207 0.0 3.2 0.00 0.00 0.00 76 1011.3
20260902062315 16 207 0.0 3.2 0.00 0.00 0.00 76 1011.3
20260902061316 16 207 0.0 3.2 0.00 0.00 0.00 76 1011.3
20260902060813 16 207 0.0 3.2 0.00 0.00 0.00 75 1011.3
20260902060313 16 207 1.6 3.2 0.00 0.00 0.00 75 1011.4
20260902055813 16 207 1.6 4.8 0.00 0.00 0.00 75 1011.4
20260902055313 16 208 0.0 4.8 0.00 0.00 0.00 75 1011.5
20260902054814 16 210 0.0 3.2 0.00 0.00 0.00 75 1011.5
20260902054313 16 210 0.0 3.2 0.00 0.00 0.00 75 1011.5
20260902053813 16 210 0.0 3.2 0.00 0.00 0.00 75 1011.5
20260902053312 16 210 0.0 3.2 0.00 0.00 0.00 75 1011.5
20260902052811 16 210 0.0 3.2 0.00 0.00 0.00 75 1011.6
20260902052316 16 222 0.0 4.8 0.00 0.00 0.00 75 1011.6
20260902052312 16 219 0.0 4.8 0.00 0.00 0.00 75 1011.6
20260902051311 16 231 0.0 3.2 0.00 0.00 0.00 75 1011.6
20260902050816 16 285 0.0 3.2 0.00 0.00 0.00 74 1011.6
20260902050812 16 247 0.0 3.2 0.00 0.00 0.00 75 1011.6
20260902045811 16 285 0.0 3.2 0.00 0.00 0.00 74 1011.7
20260902045317 16 286 0.0 3.2 0.00 0.00 0.00 75 1011.6
20260902044814 16 286 0.0 3.2 0.00 0.00 0.00 74 1011.7
20260902044310 16 286 0.0 0.0 0.00 0.00 0.00 74 1011.6
20260902043811 16 286 0.0 0.0 0.00 0.00 0.00 74 1011.6
20260902043309 16 286 0.0 0.0 0.00 0.00 0.00 74 1011.6
20260902042808 16 286 0.0 0.0 0.00 0.00 0.00 73 1011.6
20260902042310 16 286 0.0 0.0 0.00 0.00 0.00 73 1011.5
20260902041810 16 286 0.0 3.2 0.00 0.00 0.00 72 1011.5
20260902041309 16 286 0.0 3.2 0.00 0.00 0.00 71 1011.6
20260902040809 16 286 0.0 3.2 0.00 0.00 0.00 72 1011.6
20260902040309 16 286 0.0 3.2 0.00 0.00 0.00 72 1011.5
20260902035809 16 286 0.0 3.2 0.00 0.00 0.00 72 1011.6
20260902035308 16 286 0.0 3.2 0.00 0.00 0.00 72 1011.6
20260902034813 16 286 1.6 4.8 0.00 0.00 0.00 72 1011.5
20260902034809 16 286 1.6 3.2 0.00 0.00 0.00 72 1011.5
20260902033809 16 286 0.0 4.8 0.00 0.00 0.00 72 1011.5
20260902033310 16 286 1.6 4.8 0.00 0.00 0.00 72 1011.5
20260902032809 17 286 3.2 6.4 0.00 0.00 0.00 71 1011.6
20260902032423 17 269 1.6 6.4 0.00 0.00 0.00 71 1011.6
20260902032315 17 269 0.0 6.4 0.00 0.00 0.00 71 1011.6
20260902032311 17 297 1.6 6.4 0.00 0.00 0.00 71 1011.6
20260902030810 17 261 0.0 3.2 0.00 0.00 0.00 70 1011.6
20260902030806 17 260 0.0 4.8 0.00 0.00 0.00 70 1011.6
20260902025810 17 302 1.6 4.8 0.00 0.00 0.00 69 1011.5
20260902025805 17 261 1.6 4.8 0.00 0.00 0.00 69 1011.5
20260902024805 17 281 1.6 4.8 0.00 0.00 0.00 69 1011.6
20260902024305 17 294 1.6 6.4 0.00 0.00 0.00 69 1011.5
20260902023804 17 261 1.6 6.4 0.00 0.00 0.00 69 1011.5
20260902023305 17 246 1.6 6.4 0.00 0.00 0.00 69 1011.5
20260902022805 17 213 1.6 9.7 0.00 0.00 0.00 68 1011.5
20260902022310 18 306 3.2 6.4 0.00 0.00 0.00 67 1011.4
20260902022306 17 273 1.6 9.7 0.00 0.00 0.00 68 1011.5
20260902021801 18 292 3.2 6.4 0.00 0.00 0.00 67 1011.4
20260902020800 18 259 3.2 8.0 0.00 0.00 0.00 66 1011.4
20260902020302 18 286 3.2 8.0 0.00 0.00 0.00 64 1011.4
20260902015800 19 282 3.2 8.0 0.00 0.00 0.00 63 1011.3
20260902015305 19 302 3.2 9.7 0.00 0.00 0.00 63 1011.3
20260902014806 19 297 3.2 12.9 0.00 0.00 0.00 62 1011.4
20260902014802 19 280 3.2 9.7 0.00 0.00 0.00 63 1011.3
20260902014415 20 189 3.2 12.9 0.00 0.00 0.00 61 1011.3
20260902013304 20 265 4.8 12.9 0.00 0.00 0.00 60 1011.3
20260902013300 20 200 3.2 12.9 0.00 0.00 0.00 61 1011.3
20260902012308 20 219 4.8 12.9 0.00 0.00 0.00 59 1011.3
20260902012257 20 255 6.4 12.9 0.00 0.00 0.00 60 1011.4
20260902011256 20 158 3.2 12.9 0.00 0.00 0.00 61 1011.2
20260902010802 19 286 3.2 12.9 0.00 0.00 0.00 62 1011.3
20260902010257 18 239 3.2 12.9 0.00 0.00 0.00 65 1011.3
20260902005759 18 248 3.2 11.3 0.00 0.00 0.00 65 1011.3
20260902005257 18 218 3.2 12.9 0.00 0.00 0.00 65 1011.3
20260902004756 18 229 3.2 12.9 0.00 0.00 0.00 65 1011.3
20260902004256 18 251 3.2 12.9 0.00 0.00 0.00 65 1011.3
20260902003757 18 238 4.8 12.9 0.00 0.00 0.00 66 1011.1
20260902003258 18 314 3.2 11.3 0.00 0.00 0.00 65 1011.2
20260902002800 18 266 3.2 9.7 0.00 0.00 0.00 67 1011.3
20260902002756 18 296 3.2 11.3 0.00 0.00 0.00 66 1011.3
20260902001756 18 259 3.2 9.7 0.00 0.00 0.00 69 1011.3
20260902001257 18 283 3.2 8.0 0.00 0.00 0.00 68 1011.3
20260902000756 18 286 3.2 8.0 0.00 0.00 0.00 69 1011.3
20260902000257 17 267 4.8 12.9 0.00 0.00 0.00 69 1011.3
20260901235757 18 270 4.8 12.9 0.00 0.00 0.00 69 1011.3
20260901235307 18 299 4.8 12.9 0.00 0.00 0.00 68 1011.4
20260901235258 18 282 3.2 9.7 0.00 0.00 0.00 68 1011.4
20260901234910 18 233 4.8 12.9 0.00 0.00 0.00 68 1011.4
20260901233758 18 286 3.2 12.9 0.00 0.00 0.00 69 1011.3
20260901233301 18 306 3.2 14.5 0.00 0.00 0.00 70 1011.2
20260901233256 18 291 3.2 12.9 0.00 0.00 0.00 70 1011.2
20260901232258 18 229 4.8 14.5 0.00 0.00 0.00 70 1011.3
20260901231757 18 302 4.8 12.9 0.00 0.00 0.00 71 1011.4
20260901231257 18 289 3.2 12.9 0.00 0.00 0.00 71 1011.4
20260901230756 18 351 4.8 12.9 0.00 0.00 0.00 71 1011.4
20260901230256 18 331 6.4 12.9 0.00 0.00 0.00 71 1011.4
20260901225756 18 305 6.4 17.7 0.00 0.00 0.00 71 1011.4
20260901225255 18 355 4.8 17.7 0.00 0.00 0.00 71 1011.5
20260901224756 17 303 4.8 12.9 0.00 0.00 0.00 72 1011.4
20260901224255 17 313 4.8 14.5 0.00 0.00 0.00 72 1011.4
20260901223755 17 315 4.8 14.5 0.00 0.00 0.00 72 1011.3
20260901223255 17 298 4.8 12.9 0.00 0.00 0.00 73 1011.4
20260901222755 17 306 4.8 12.9 0.00 0.00 0.00 74 1011.5
20260901222253 17 273 4.8 12.9 0.00 0.00 0.00 74 1011.6
20260901221756 17 328 4.8 12.9 0.00 0.00 0.00 74 1011.6
20260901221751 17 321 4.8 12.9 0.00 0.00 0.00 74 1011.6
20260901220751 17 299 4.8 9.7 0.00 0.00 0.00 73 1011.5
20260901220250 18 258 3.2 9.7 0.00 0.00 0.00 72 1011.5
20260901215754 18 300 3.2 9.7 0.00 0.00 0.00 72 1011.3
20260901215750 18 304 3.2 9.7 0.00 0.00 0.00 71 1011.4
20260901214750 18 309 3.2 9.7 0.00 0.00 0.00 70 1011.2
20260901214248 18 257 3.2 9.7 0.00 0.00 0.00 69 1011.2
20260901213753 18 222 0.0 3.2 0.00 0.00 0.00 67 1011.1
20260901213748 18 284 1.6 9.7 0.00 0.00 0.00 68 1011.1
20260901212746 18 229 1.6 3.2 0.00 0.00 0.00 67 1011.0
20260901212246 18 230 1.6 3.2 0.00 0.00 0.00 68 1011.1
20260901211747 18 231 1.6 3.2 0.00 0.00 0.00 68 1011.1
20260901211244 18 232 1.6 6.4 0.00 0.00 0.00 68 1011.1
20260901210746 18 232 1.6 6.4 0.00 0.00 0.00 67 1011.1
20260901210244 18 262 1.6 6.4 0.00 0.00 0.00 67 1011.2
20260901205743 18 263 1.6 6.4 0.00 0.00 0.00 68 1011.1
20260901205245 19 237 1.6 8.0 0.00 0.00 0.00 67 1011.0
20260901204745 19 229 3.2 8.0 0.00 0.00 0.00 67 1011.1
20260901204243 19 201 1.6 6.4 0.00 0.00 0.00 68 1011.1
20260901203745 19 257 1.6 6.4 0.00 0.00 0.00 68 1011.2
20260901203243 19 300 1.6 6.4 0.00 0.00 0.00 69 1011.2
20260901202743 18 242 1.6 4.8 0.00 0.00 0.00 69 1011.2
20260901202242 18 242 1.6 4.8 0.00 0.00 0.00 69 1011.2
20260901201742 18 242 1.6 4.8 0.00 0.00 0.00 69 1011.3
20260901201246 18 247 1.6 6.4 0.00 0.00 0.00 70 1011.3
20260901201242 18 261 1.6 6.4 0.00 0.00 0.00 70 1011.3
20260901200243 18 238 3.2 8.0 0.00 0.00 0.00 69 1011.3
20260901195741 18 302 4.8 8.0 0.00 0.00 0.00 70 1011.4
20260901195240 18 313 3.2 9.7 0.00 0.00 0.00 69 1011.3
20260901194741 19 293 3.2 9.7 0.00 0.00 0.00 69 1011.2
20260901194247 19 199 1.6 8.0 0.00 0.00 0.00 66 1011.4
20260901194240 19 270 1.6 8.0 0.00 0.00 0.00 69 1011.2
20260901193740 19 267 1.6 6.4 0.00 0.00 0.00 69 1011.3
20260901193241 19 295 3.2 8.0 0.00 0.00 0.00 67 1011.3
20260901192854 19 299 1.6 4.8 0.00 0.00 0.00 66 1011.4
20260901192240 19 298 1.6 4.8 0.00 0.00 0.00 66 1011.4
20260901191239 19 297 1.6 3.2 0.00 0.00 0.00 68 1011.4
20260901190743 18 252 0.0 3.2 0.00 0.00 0.00 68 1011.5
20260901190739 19 252 0.0 3.2 0.00 0.00 0.00 68 1011.4
20260901185742 18 254 1.6 3.2 0.00 0.00 0.00 71 1011.5
20260901185738 18 253 0.0 3.2 0.00 0.00 0.00 70 1011.5
20260901184738 18 294 1.6 3.2 0.00 0.00 0.00 70 1011.7
20260901184238 18 5 1.6 4.8 0.00 0.00 0.00 70 1011.7
20260901183739 18 5 1.6 4.8 0.00 0.00 0.00 70 1011.8
20260901183243 18 317 1.6 4.8 0.00 0.00 0.00 70 1011.8
20260901183238 18 29 1.6 4.8 0.00 0.00 0.00 70 1011.7
20260901182238 18 318 1.6 4.8 0.00 0.00 0.00 70 1011.7
20260901181737 18 9 0.0 3.2 0.00 0.00 0.00 70 1011.7
20260901181238 18 104 1.6 8.0 0.00 0.00 0.00 71 1011.6
20260901180738 18 82 3.2 8.0 0.00 0.00 0.00 70 1011.6
20260901180239 18 355 1.6 3.2 0.00 0.00 0.00 71 1011.7
20260901175739 18 342 1.6 4.8 0.00 0.00 0.00 71 1011.6
20260901175238 18 0 1.6 4.8 0.00 0.00 0.00 72 1011.6
20260901174736 18 5 1.6 4.8 0.00 0.00 0.00 72 1011.6
20260901174235 18 22 1.6 3.2 0.00 0.00 0.00 73 1011.6
20260901173735 18 20 1.6 4.8 0.00 0.00 0.00 73 1011.6